STARLINK-37792, 69437

Orbit data source: Space-Track

STARLINK-37792, 69437 is a payload satellite owned by SpaceX/Seattle (US) in SSO that was launched on Sun, 07 Jun 2026 UTC via an FALCON 9 launch vehicle from the Air Force Western Test Range (AFWTR). Payload-class satellites include a variety of spacecraft equipped with specific instruments for various scientific and technological missions. These include communications satellites like Starlink; space stations such as the ISS; scientific satellites like the Hubble; Earth observation satellites from companies like Planet Labs, Umbra, and HawkEye 360; GPS; miniature CubeSats for education and research; and military/defense satellites.

Not visible in the next 10 days
Identifier
69437, 2026-126T
Orbit
SSO
Country
Flag of USUS
Related business
Manufacturer
SpaceX/Seattle
Mission
Operational spacecraft
Bus & Motor
STARLINK V2MO, Unknown motor
Mass
575 kg wet, ~530 kg dry
Launch date (UTC)
2026-06-07 (2 weeks ago)
Launch vehicle
FALCON 9
Launch site
Air Force Western Test Range (AFWTR)
Object type
Payload
Rocket body
Debris
Shape & HBR
Unknown
Radar Cross Section
RCS unknown

Expand to show TLE details & history
Last TLE update: 20 hours ago

TLE from 20 hours ago
0 STARLINK-37792
1 69437U 26126T   26171.07258871  .00215477  00000-0  11409-2 0  9994
2 69437  97.2823  31.2481 0001982  88.1916 271.9579 15.79972601  3251
Epoch: 2026-06-20T01:44Z
TLE epoch observation values (Epoch: 2026-06-20T01:44:31.664Z)
Latitude
-0.00001°
Longitude
96.82371°
Altitude
333.648 km
Speed
7.708 km/s
True Right ascension
02h 04m 59s
True Declination
0° 00' 00"
Sunlit
Object was in daylight at epoch
Visualization orbit readout
Latitude
Unknown
Longitude
Unknown
Altitude
Unknown
Speed
Unknown
Apparent Right ascension
Unknown
Apparent Declination
Unknown
Sunlit
N/A
Visualization observer readout
Local Sidereal Time
08:32:53
Azimuth
Unknown
Elevation
Unknown
Doppler factor
Unknown
Orbital elements
Apogee altitude
328.728 km
Perigee altitude
326.07 km
Semi-major axis
6,705.536 km
Eccentricity
0.0002
Inclination
97.2823°
RAAN
31.2481°
Arg. of periapsis
88.1916°
True anomaly
271.9352°
Mean anomaly
271.9579°
Eccentric anomaly
271.94655°
Mean motion
3.95269 °/min
Orbital period
91.08 mins
BSTAR
0.0011409
Loading maneuver chart data...
Computing Atmospheric mass density...
Loading historical data...
Loading historical data...
Loading historical data...
Loading historical data...
Loading historical data...
Loading historical data...
Loading historical data...

Documentation

Showing up to 5 results
|